Theta_e
328 334 334 337 344 344 339 339 340 340 340 340 343 344 342 343 344 349 347 346 345 350 349 342 330 332 337 338 341 353 354 350 346 341 336 336 339 340 338 335 334 338 342 341 337 338 333 333 330
331 332 333 332 341 339 336 333 334 334 336 338 343 342 341 342 348 348 348 346 346 351 349 346 330 330 335 337 339 346 350 349 347 345 338 338 341 339 336 334 333 338 342 345 341 336 336 332 331
328 328 330 335 336 333 333 330 331 332 332 336 340 339 339 347 348 348 347 347 347 351 349 349 330 328 332 334 337 341 347 347 347 346 341 341 339 337 333 333 332 338 342 344 343 340 335 334 335
328 329 331 336 331 329 329 327 330 335 340 339 340 339 341 344 348 350 349 348 350 349 349 352 332 330 329 330 332 336 343 347 347 346 342 340 339 339 334 334 332 337 343 343 343 341 338 335 332
323 326 333 331 328 327 325 325 335 338 339 339 341 339 343 351 352 352 351 349 348 350 350 351 338 330 328 329 330 332 335 340 345 346 344 341 340 339 335 333 331 335 338 340 340 338 334 331 330
325 330 332 328 326 325 325 326 332 338 340 343 340 339 344 350 353 353 352 350 349 350 349 351 348 334 329 327 329 330 330 331 335 341 344 343 340 335 333 332 333 336 338 339 338 337 336 336 334
329 331 326 326 326 324 323 326 336 337 337 341 340 339 343 351 352 352 352 352 350 348 348 350 349 347 336 333 328 328 330 331 331 331 332 333 333 334 335 337 338 339 340 340 340 339 338 337 335
326 326 324 323 324 324 325 326 326 328 337 339 339 342 345 352 351 352 351 349 347 345 346 347 349 348 347 345 334 333 332 333 335 336 336 336 337 337 336 337 337 336 338 338 339 338 338 337 335
322 325 325 323 323 324 332 331 333 333 335 344 345 347 349 350 350 349 349 348 346 346 345 345 345 346 347 345 350 342 335 338 340 340 339 340 342 343 343 342 341 343 340 338 338 337 336 334 332
322 325 323 323 322 323 335 339 339 337 340 344 342 346 347 349 348 348 348 347 346 346 346 344 344 345 346 347 348 349 347 346 344 343 344 345 342 342 343 343 343 341 338 334 334 334 334 336 336
322 325 323 323 325 322 329 340 344 342 347 347 342 347 348 348 348 342 343 342 342 342 343 345 346 346 344 345 347 347 346 347 348 348 347 345 342 342 343 340 340 342 341 342 339 342 342 338 337
323 323 323 331 334 334 341 341 348 350 349 346 347 348 348 352 352 351 350 349 348 344 346 348 346 348 347 345 347 347 347 348 347 347 348 346 345 343 343 341 339 339 338 338 338 337 337 337 337
323 323 323 338 339 340 343 350 354 354 352 351 351 352 352 351 351 349 345 343 344 343 342 345 346 348 349 348 346 346 346 346 345 345 344 342 342 342 342 341 339 338 337 337 337 337 336 336 337
323 327 327 338 341 341 346 348 349 354 353 354 353 352 350 347 344 343 342 340 340 345 342 342 341 333 347 348 347 343 343 342 342 341 341 342 340 339 337 337 337 337 336 336 336 335 335 336 336
322 335 339 340 340 341 342 352 356 353 353 354 351 349 342 339 337 336 336 335 335 339 341 339 336 338 336 343 342 342 341 341 338 337 337 337 337 335 334 339 338 338 336 338 340 340 340 339 338
324 334 335 338 339 342 343 357 354 351 352 352 350 340 337 335 333 333 331 331 333 332 333 336 337 339 334 338 343 342 343 339 337 335 332 338 339 338 338 338 340 339 338 338 337 337 339 340 340
325 327 329 339 339 341 345 354 353 349 351 351 343 335 331 331 331 331 330 331 331 331 330 331 335 336 336 339 338 340 343 342 341 340 338 339 339 340 339 339 340 339 337 335 335 335 335 336 338
327 330 334 338 343 343 348 355 352 347 346 344 337 332 330 330 330 330 330 330 330 331 330 331 331 333 333 333 333 336 334 338 340 340 340 340 339 338 339 337 337 336 336 335 334 333 333 334 334
328 332 339 344 344 347 353 353 352 344 340 336 332 331 330 329 328 329 329 329 330 330 329 329 329 329 328 328 328 328 329 329 329 330 333 336 339 337 337 337 337 335 335 336 335 335 334 333 333
332 334 340 340 340 346 351 350 349 348 342 336 335 333 330 330 331 330 330 328 327 327 326 326 325 325 324 324 323 323 323 323 322 322 323 324 328 331 336 337 335 335 336 336 335 335 336 336 335
331 331 337 339 340 342 345 348 348 348 345 340 338 336 333 332 332 332 331 329 328 327 326 325 325 325 326 325 321 320 320 319 319 320 322 325 326 327 329 334 337 335 335 334 335 336 335 337 336
327 326 330 337 337 338 340 342 349 346 346 343 343 338 335 334 332 332 330 330 329 328 327 325 324 324 324 325 321 322 320 320 320 320 321 324 325 326 328 330 332 332 331 330 330 330 332 334 336
329 326 330 334 333 335 338 336 350 346 348 346 343 338 337 334 331 330 328 326 323 321 322 323 323 324 324 323 323 321 320 320 319 319 320 321 321 322 324 328 329 331 331 331 331 328 329 331 334
330 333 335 334 333 334 338 336 345 347 346 344 343 339 336 334 332 329 327 324 322 321 320 320 321 323 323 322 322 321 321 321 320 320 320 318 319 319 321 324 328 328 329 330 330 330 327 328 329
329 331 333 333 333 336 339 336 347 343 341 341 341 339 336 333 330 329 326 323 322 320 320 320 321 322 322 322 321 321 321 320 319 319 319 320 320 321 322 323 324 326 328 328 328 327 327 327 328
329 329 330 330 329 332 337 335 346 338 337 338 340 337 334 331 330 327 323 320 319 319 319 319 320 321 321 321 321 321 320 319 318 318 318 318 316 316 315 318 321 325 326 326 327 325 325 325 326
331 331 330 331 332 329 334 340 339 336 337 339 339 335 332 328 325 323 320 318 318 318 318 319 321 321 321 321 320 319 318 317 316 315 311 311 310 309 311 315 316 320 320 321 322 323 325 324 321
331 330 332 331 330 328 330 332 339 340 338 334 335 332 328 324 322 320 318 318 318 318 317 320 322 321 320 320 318 318 315 315 313 311 310 307 306 307 309 311 313 314 315 317 317 317 317 315 312
330 331 332 331 330 328 328 339 335 337 335 334 330 328 324 320 321 320 318 318 317 317 319 321 321 320 319 318 317 314 314 311 309 311 309 307 306 306 307 308 310 310 310 310 311 309 309 307 308
330 331 331 331 331 331 329 337 333 332 331 329 328 324 321 321 320 320 318 318 317 319 320 320 320 319 318 316 314 312 310 308 306 306 308 305 304 303 305 306 307 309 309 307 307 306 307 306 305
Wind_Speed
5 3 4 8 7 6 6 7 5 4 1 5 5 8 12 10 15 7 5 5 8 16 17 19 21 22 20 17 13 15 20 25 24 23 24 25 24 22 20 20 20 19 17 15 14 15 16 15 13
5 3 7 4 7 3 9 7 7 8 5 7 3 7 3 11 12 7 5 5 11 15 16 17 20 21 20 18 15 15 19 24 23 22 23 24 23 20 19 19 20 19 17 16 14 14 15 15 13
3 5 6 5 3 11 7 10 10 7 6 7 2 1 6 13 10 6 10 8 12 14 15 15 20 20 20 19 17 16 20 23 23 22 22 22 22 19 19 19 19 18 16 16 15 14 14 15 13
5 6 5 5 8 11 9 11 10 2 4 4 2 5 9 12 5 7 11 11 13 13 13 13 18 17 17 17 17 17 18 21 21 22 21 21 21 18 18 18 19 18 15 14 14 14 14 14 15
7 4 4 1 9 7 9 12 7 3 3 4 2 14 7 8 10 11 11 12 13 11 11 11 15 16 16 17 17 18 17 17 19 20 20 20 20 18 18 18 19 19 17 16 15 15 15 14 14
5 4 5 7 10 10 13 9 6 4 5 7 5 5 7 6 9 11 11 11 12 14 12 14 14 14 13 13 15 17 17 17 17 18 19 19 18 17 17 18 18 18 18 17 17 17 17 16 16
6 5 8 3 5 14 14 8 10 4 3 10 3 8 5 10 10 10 11 11 11 12 12 13 14 13 13 12 12 13 13 14 14 15 16 16 16 16 15 16 16 17 18 17 18 19 19 19 19
4 4 2 5 5 12 13 11 8 11 12 4 10 6 10 12 10 11 10 9 10 9 9 10 12 13 13 11 11 11 10 10 10 10 9 10 11 12 13 15 15 17 18 19 21 21 21 21 22
3 5 4 8 8 9 14 11 12 6 7 15 11 15 13 10 8 9 9 9 7 5 4 4 7 9 11 10 10 10 13 12 11 9 9 9 10 11 12 15 16 17 19 20 21 21 22 22 23
6 4 8 6 6 6 10 17 11 8 9 11 12 15 12 9 8 11 12 10 9 5 1 2 6 7 10 12 13 10 12 11 11 11 10 11 12 12 11 10 12 18 22 21 22 23 23 23 23
2 5 4 10 6 5 4 11 17 11 17 17 13 14 12 14 19 16 15 13 12 8 3 5 7 9 12 12 13 14 14 12 12 11 11 11 11 13 13 14 15 14 15 16 19 20 19 22 24
6 4 7 8 6 4 8 7 18 19 15 14 16 16 16 15 13 14 12 12 14 18 14 7 3 7 9 7 7 9 12 14 15 14 13 11 11 12 14 14 15 16 17 17 18 20 21 22 23
6 4 4 7 12 14 13 18 15 17 14 15 16 18 17 16 19 18 18 19 18 21 21 16 16 8 9 6 6 8 10 8 10 11 11 13 13 13 15 17 18 20 20 20 20 21 22 23 24
3 2 8 9 6 12 16 16 7 13 13 16 18 20 20 21 20 19 21 23 24 21 22 19 19 22 9 5 4 6 14 10 8 10 9 13 13 16 20 23 25 26 25 24 23 23 22 23 25
4 11 12 11 11 10 3 18 15 11 14 18 17 19 20 18 22 23 22 26 21 24 19 17 16 8 5 7 5 6 15 15 14 15 13 17 19 21 21 23 23 21 21 20 17 17 20 23 23
7 11 12 8 9 2 8 12 10 12 12 17 17 17 18 21 22 23 24 26 22 23 25 25 23 24 26 21 14 9 7 9 16 20 18 15 17 18 21 21 20 15 13 15 16 16 17 16 19
10 10 7 10 4 3 4 13 8 11 12 15 16 16 16 18 20 20 21 23 24 24 24 24 23 21 18 15 11 8 4 8 9 10 12 17 19 22 21 22 20 15 14 16 17 19 20 21 24
9 8 7 9 4 6 13 15 10 9 13 15 15 14 15 16 16 17 17 19 19 20 20 20 19 17 15 13 11 10 10 7 9 12 15 19 22 27 27 25 25 23 25 20 14 16 17 19 20
3 8 12 12 9 10 13 13 10 10 12 14 14 14 13 13 15 14 13 13 15 16 17 17 19 19 19 19 19 18 17 15 15 14 15 19 20 20 21 26 24 21 21 18 16 16 19 20 19
8 11 13 7 6 8 12 11 10 9 10 11 12 12 11 10 9 9 9 10 12 13 15 16 16 17 19 17 18 18 17 16 16 17 20 19 20 22 20 20 21 23 20 19 17 16 20 20 17
6 3 10 10 9 8 10 10 10 9 10 11 10 9 8 7 6 6 7 8 9 11 12 14 14 13 14 15 18 20 20 21 22 24 22 21 22 21 21 19 15 15 16 18 19 17 18 21 19
9 2 3 11 11 5 11 2 11 12 8 6 9 7 7 5 3 3 4 5 7 8 8 11 12 13 14 15 19 19 22 25 26 25 24 25 23 21 20 20 19 17 15 16 17 21 22 22 21
6 2 4 8 8 6 11 9 10 11 10 9 8 7 6 5 3 5 6 6 6 10 10 11 13 13 14 15 16 20 21 24 26 29 30 26 21 22 22 19 19 18 14 15 14 17 19 22 21
9 8 6 4 4 10 5 7 12 8 4 8 8 9 7 5 4 4 2 5 9 13 14 14 15 14 14 15 17 19 21 24 26 31 32 31 30 25 21 23 21 20 16 14 13 14 16 20 23
6 7 7 6 6 3 3 7 10 6 5 3 4 9 6 2 4 3 8 12 13 15 16 16 14 14 15 17 19 20 21 22 26 27 31 36 33 28 25 24 25 22 18 17 14 12 15 16 18
5 6 7 5 3 4 4 2 7 5 5 4 7 6 4 4 7 8 14 17 19 19 20 19 19 18 18 20 20 21 22 25 26 26 24 25 28 29 29 24 25 23 18 14 13 12 11 11 11
6 1 4 6 6 8 4 6 6 6 7 5 6 5 7 10 10 15 19 19 19 21 22 22 20 20 23 25 26 27 28 28 25 22 23 20 20 23 24 18 14 13 13 13 14 14 12 7 10
4 4 5 2 5 8 5 3 8 7 7 6 6 7 8 11 12 12 15 18 20 21 21 15 16 18 20 21 24 25 25 24 23 22 23 22 22 25 26 22 17 16 14 13 12 13 12 11 17
4 3 2 4 4 6 6 6 6 7 7 6 7 8 11 10 12 12 13 15 20 21 17 13 16 20 22 23 22 23 21 20 20 22 22 23 25 26 28 27 25 23 20 17 14 13 13 16 18
10 5 3 5 3 0 6 4 5 6 6 6 7 10 10 13 12 12 18 21 20 14 13 15 18 20 21 20 16 14 14 17 19 20 21 24 24 25 26 25 26 21 23 22 21 22 21 22 23
Wind_Direction
161 165 257 251 248 242 77 70 352 323 294 10 312 301 352 322 351 19 44 96 139 149 157 161 169 174 177 178 176 167 174 182 185 185 186 185 182 181 179 176 174 171 173 175 178 180 183 183 181
176 231 243 282 263 186 84 16 342 330 333 308 305 285 277 44 31 74 89 104 139 145 156 163 169 174 179 180 177 177 176 180 184 189 188 189 187 187 184 184 183 180 182 185 186 188 191 195 196
211 247 271 283 290 34 20 7 352 338 283 260 246 1 7 35 50 57 101 119 144 149 156 167 171 173 179 182 184 180 182 183 189 192 192 193 191 192 194 193 192 191 194 198 199 200 203 203 207
229 206 220 270 45 61 19 354 344 338 141 212 306 71 107 40 50 62 112 118 136 147 152 177 172 174 177 183 188 188 184 190 194 196 197 197 199 201 202 201 200 201 204 209 214 215 218 219 222
231 245 240 134 79 45 25 357 1 25 45 111 318 69 73 56 81 105 108 123 132 138 146 160 172 178 179 185 187 192 193 192 196 200 202 203 204 209 209 209 208 209 214 216 221 224 227 231 235
221 276 230 66 69 58 28 18 15 24 67 38 36 50 67 104 106 111 108 114 126 135 144 159 172 181 186 190 190 193 197 199 201 203 204 209 215 220 219 219 218 219 222 226 229 232 233 236 238
288 261 51 25 63 50 24 18 45 52 49 44 2 55 104 106 102 101 102 107 118 132 138 154 172 179 191 198 202 200 203 208 208 210 213 218 220 225 228 231 232 234 237 238 241 242 244 244 245
282 270 180 45 13 52 21 58 11 24 57 96 355 33 64 95 102 99 99 105 107 123 132 150 173 186 190 198 215 215 216 221 226 231 235 241 235 239 242 243 246 244 246 249 249 249 249 250 249
272 240 85 41 8 17 23 12 21 4 55 57 62 41 47 80 99 97 99 97 86 80 106 152 180 194 199 201 200 227 226 223 224 235 246 240 236 240 241 243 244 259 260 257 258 260 261 261 261
254 274 54 31 19 8 48 35 360 353 89 23 355 76 83 92 85 59 54 52 46 46 25 231 206 206 210 206 208 209 211 221 223 226 226 239 239 247 246 244 240 259 257 255 255 257 259 261 257
146 10 30 44 12 342 60 49 27 0 49 18 57 86 91 88 63 62 61 47 36 17 336 248 230 215 210 217 214 212 213 211 210 209 217 232 245 250 247 248 245 248 254 254 254 252 250 250 251
248 60 13 23 55 79 64 72 55 54 53 53 68 74 74 77 65 62 52 45 34 30 10 336 308 263 256 228 230 245 234 222 215 210 201 209 224 238 243 252 256 251 250 251 251 252 250 252 253
239 54 85 100 94 89 92 73 71 67 65 70 73 72 72 72 70 70 71 56 44 48 40 35 50 357 305 277 268 276 266 261 273 261 246 209 209 228 240 245 243 246 246 242 244 249 254 255 253
86 30 127 139 111 102 89 73 95 66 74 71 69 72 70 64 68 71 64 59 48 50 60 70 96 56 262 243 255 322 300 275 270 269 246 240 220 217 231 237 234 236 238 243 246 244 241 248 255
156 129 124 138 142 136 123 66 68 81 82 79 71 76 73 71 61 59 64 70 54 58 55 60 64 101 33 52 329 320 269 249 241 242 229 248 247 239 247 243 254 250 255 250 243 254 257 254 250
186 183 179 144 187 70 239 92 74 87 90 91 89 84 76 63 60 56 60 70 68 66 62 60 56 46 47 36 28 12 331 262 263 268 266 274 269 273 274 269 265 268 259 260 262 257 261 268 265
188 189 194 150 202 149 266 119 106 99 99 94 89 80 75 77 65 56 57 59 58 55 53 55 56 57 56 49 35 24 312 293 291 293 291 279 282 277 273 272 273 278 282 268 263 263 258 262 264
151 146 160 127 99 189 123 113 106 111 107 95 86 83 79 73 67 60 54 57 58 56 52 49 51 48 46 39 27 12 358 332 301 294 288 295 293 284 267 266 277 282 278 267 264 256 256 256 260
137 149 117 118 84 104 120 123 121 121 110 107 102 90 83 74 77 64 56 49 53 52 49 45 42 36 26 19 9 1 353 344 332 318 309 306 296 295 293 276 275 269 265 262 269 268 255 252 254
141 133 118 113 147 143 143 128 131 128 111 105 104 100 100 93 77 68 64 58 50 46 39 36 34 34 27 18 11 359 344 337 327 324 321 317 313 309 305 294 279 272 266 264 258 256 265 263 256
152 139 178 130 155 152 155 157 152 140 136 123 106 107 108 98 102 88 62 51 49 43 34 31 29 27 25 13 5 355 346 341 338 332 325 330 322 318 309 304 299 301 296 292 282 266 269 266 251
176 204 185 154 191 217 213 298 182 164 162 152 152 130 130 124 141 116 90 50 34 23 31 27 32 25 25 14 7 355 346 340 332 327 326 321 321 324 318 310 305 304 311 307 296 291 281 267 259
67 152 204 193 235 237 180 260 115 163 171 149 155 144 138 159 126 77 56 44 46 27 34 32 29 25 19 10 2 352 346 339 334 331 331 322 319 319 320 316 309 306 300 298 297 288 284 272 268
129 126 143 224 232 235 106 282 139 156 150 140 159 138 150 151 132 85 51 46 29 25 23 27 17 16 8 360 356 352 344 338 334 330 325 325 324 321 319 320 315 305 297 295 296 291 286 282 280
230 203 213 208 206 22 113 252 52 86 81 14 126 127 144 116 74 35 24 10 16 16 17 7 7 358 359 356 352 349 344 338 335 329 328 325 321 321 325 325 314 310 304 300 299 293 292 293 295
39 324 4 309 310 47 144 311 88 60 55 89 76 90 67 34 29 19 26 11 8 4 6 355 350 354 359 356 352 350 346 342 335 339 329 329 330 327 322 314 310 310 309 314 313 308 310 319 316
121 305 15 295 199 264 77 118 145 85 67 69 67 48 37 31 21 19 18 12 4 360 354 349 352 355 357 355 352 350 350 349 351 352 348 345 341 338 341 340 351 349 350 342 341 335 319 341 0
338 93 255 245 307 313 127 265 54 24 18 27 37 37 31 24 21 20 10 7 358 349 340 356 353 358 354 352 351 351 351 355 360 4 5 1 2 9 9 11 15 19 15 9 11 9 27 56 57
175 183 31 292 309 324 306 75 23 38 40 41 33 25 30 7 3 10 351 356 350 348 356 1 358 358 354 351 353 354 354 359 2 4 5 6 8 16 16 19 31 32 28 28 34 41 50 58 69
54 39 353 320 15 323 280 82 42 45 52 25 16 27 8 360 8 348 356 357 354 3 358 4 358 354 352 348 354 357 3 4 5 6 5 7 12 14 17 20 28 33 41 45 50 57 62 67 68